This is the latest recevied weather packets stored in our database for station/object HB9BTL-13. If no packets are shown the sender has not sent any weather packets the latest 10 day(s).
| Time | Temp. | Humidity | Pressure | Rain* | Wind** | Luminosity | Snow |
|---|---|---|---|---|---|---|---|
| 1777855082 | 14.44° C | 10% | - | - | - | - | - |
| 1777854176 | 14.44° C | 98% | 1015.7 hPa | - | - | - | - |
| 1777853271 | 14.44° C | 98% | 1015.8 hPa | - | - | - | - |
| 1777852365 | 14.44° C | 97% | 1015.8 hPa | - | - | - | - |
| 1777851460 | 14.44° C | 97% | 1015.9 hPa | - | - | - | - |
| 1777850554 | 14.44° C | 99% | 1016.2 hPa | - | - | - | - |
| 1777849649 | 15° C | 10% | - | - | - | - | - |
| 1777848743 | 15° C | 10% | - | - | - | - | - |
| 1777847838 | 15.56° C | 98% | 1016.2 hPa | - | - | - | - |
| 1777846933 | 15.56° C | 98% | 1016.2 hPa | - | - | - | - |
| 1777846027 | 15° C | 98% | 1016 hPa | - | - | - | - |
| 1777845122 | 15.56° C | 97% | 1015.7 hPa | - | - | - | - |
| 1777844217 | 15° C | 99% | 1015.7 hPa | - | - | - | - |
| 1777843312 | 15° C | 97% | 1015.7 hPa | - | - | - | - |
| 1777842406 | 15.56° C | 92% | 1015.4 hPa | - | - | - | - |
| 1777841501 | 15.56° C | 93% | 1015.7 hPa | - | - | - | - |
| 1777840595 | 15° C | 96% | 1015.9 hPa | - | - | - | - |
| 1777839690 | 15° C | 96% | 1015.9 hPa | - | - | - | - |
| 1777838784 | 15° C | 91% | 1015.9 hPa | - | - | - | - |
| 1777837879 | 15° C | 91% | 1015.8 hPa | - | - | - | - |
| 1777836973 | 15° C | 91% | 1015.7 hPa | - | - | - | - |
| 1777836068 | 15° C | 90% | 1015.5 hPa | - | - | - | - |
| 1777835163 | 15° C | 93% | 1015.3 hPa | - | - | - | - |
| 1777834257 | 15.56° C | 90% | 1015.3 hPa | - | - | - | - |
| 1777833352 | 15.56° C | 92% | 1015.2 hPa | - | - | - | - |
* Rain since midnight (hover to see other rain measurements)
** Current wind speed in m/s (hover to see current wind gust speed)